Location: Bagnolo San Vito
(45.0833°N, 10.8833°E)
Time: 09:45:46
(UTC+00:00)

SL-16 R/B - Pass Details

Date: 03 March 2021
Orbit: 843 x 845 km, 71.0° (Epoch: 18 April)

Event Time Altitude Azimuth Distance (km) Brightness Sun altitude
Rises 17:46:01 0° 202° (SSW) 3,387 5.7 -7.7°
Reaches altitude 10° 17:48:27 10° 202° (SSW) 2,456 4.9 -8.2°
Maximum altitude 17:54:06 87° 116° (ESE) 852 2.2 -9.2°
Drops below altitude 10° 17:59:48 10° 27° (NNE) 2,475 4.4 -10.2°
Sets 18:02:15 0° 27° (NNE) 3,414 5.1 -10.6°
